Location: Butte
(46.0040°N, 112.5340°W)
Time: 03:44:02
(UTC-06:00)

Daily predictions for brighter satellites

Satellite Brightness Start Highest point End
(mag) Time Altitude Azimuth Time Altitude Azimuth Time Altitude Azimuth
Gbstr 26 Del rocket 2.8 00:04:12 10° WNW 00:09:06 87° SSW 00:09:37 69° SE
Timation 1 Rocket 4.4 00:07:59 25° SSW 00:11:42 81° WNW 00:17:46 10° NNE
Cosmos 1536 3.2 00:15:48 50° ENE 00:15:48 50° ENE 00:19:21 10° NNE
H-2A R/B 4.2 00:11:58 10° NE 00:15:11 23° E 00:15:11 23° E
Cosmos 1400 Rocket 3.0 00:16:25 61° E 00:16:25 61° E 00:20:21 10° NNE
ISS -2.1 00:14:08 10° W 00:17:15 42° NNW 00:20:23 10° NE
Cosmos 1892 Rocket 3.8 00:16:17 10° N 00:20:35 53° ENE 00:20:48 52° E
Terra 3.5 00:26:48 20° WSW 00:28:25 24° W 00:32:16 10° NW
Meteor 1-23 Rocket 4.1 00:27:25 10° N 00:33:02 80° E 00:34:13 56° SSE
Cosmos 1821 Rocket 3.9 00:31:19 44° SSW 00:33:30 86° W 00:39:46 10° N
Meteor 1-19 Rocket 4.3 00:27:39 10° NNW 00:33:31 72° W 00:35:04 49° SSW
Cosmos 1605 Rocket 4.2 00:32:28 46° SE 00:34:07 60° E 00:40:26 10° NNE
SL-8 R/B 3.9 00:30:02 10° WNW 00:34:50 70° N 00:37:06 31° E
Cosmos 1503 Rocket 3.9 00:31:10 10° NNW 00:36:26 89° ENE 00:37:19 63° SSE
CZ-4B R/B 3.0 00:38:33 28° NE 00:38:33 28° NE 00:40:33 10° N
Cosmos 2285 Rocket 4.0 00:36:45 50° SSE 00:38:15 64° ESE 00:44:35 10° NNE
Iridium 4 Rocket 3.9 00:33:01 10° N 00:38:51 72° W 00:40:33 47° SSW
Cosmos 2369 Rocket 2.3 00:39:18 52° SE 00:39:47 54° ESE 00:45:16 10° NE
Cosmos 2084 Rocket 3.8 00:36:14 10° NNW 00:40:02 50° NE 00:40:10 50° NE
Cosmos 1626 Rocket 4.5 00:42:04 10° N 00:46:14 37° ENE 00:46:26 37° E
Cosmos 2123 Rocket 3.9 00:41:26 10° N 00:47:45 82° W 00:49:26 51° S
ALOS 2 2.5 00:47:43 73° E 00:47:49 74° ENE 00:52:12 10° N
Cosmos 1934 Rocket 3.9 00:46:17 48° SSW 00:48:05 80° W 00:54:11 10° N
Lacrosse 5 1.8 00:48:56 67° SE 00:48:56 67° SE 00:53:52 10° NE
Cosmos 1025 Rocket 3.5 00:44:36 10° NNW 00:48:52 50° W 00:49:03 50° WSW
MOS 1-B Rocket 4.4 00:49:04 41° SE 00:51:04 60° ENE 00:57:50 10° N
Cosmos 1455 Rocket 3.3 00:51:26 59° ENE 00:51:26 59° ENE 00:55:27 10° NNE
CZ-2C R/B 3.8 00:47:31 10° NE 00:52:00 28° E 00:52:09 28° E
Meteor 2-16 Rocket 4.4 00:52:12 50° SSW 00:53:56 81° W 01:00:05 10° N
Cosmos 1633 3.4 00:58:16 47° NW 00:58:16 47° NW 01:01:30 10° N
NOSS 3-1 (A) 4.0 00:57:16 10° NW 01:04:44 67° WSW 01:07:20 45° S
Meteor 1-5 Rocket 3.9 01:05:47 68° S 01:06:29 86° ESE 01:11:51 10° NNE
Cosmos 1354 Rocket 4.4 01:03:50 10° NNW 01:08:53 47° WSW 01:09:18 46° WSW
Okean 2 4.0 01:09:30 10° NNW 01:13:13 49° WNW 01:13:13 49° WNW
Cosmos 1315 Rocket 3.6 01:18:32 43° WNW 01:18:32 43° WNW 01:22:05 10° N
Cosmos 1818 3.9 01:18:47 50° ESE 01:18:47 50° ESE 01:23:54 10° NE
Cosmos 1943 Rocket 2.5 01:19:04 46° ESE 01:19:12 47° ESE 01:24:34 10° NE
Cosmos 1544 Rocket 4.1 01:20:39 47° W 01:20:45 47° WNW 01:24:58 10° N
Lacrosse 5 rocket 1.9 01:24:26 49° N 01:24:26 49° N 01:27:36 10° NE
Cosmos 1515 4.5 01:21:09 10° N 01:24:22 49° NE 01:24:22 49° NE
Cosmos 1689 Rocket 4.1 01:27:11 28° NW 01:27:11 28° NW 01:28:56 10° NNW
ATLAS 2AS CENTAUR R/B 3.1 01:18:02 10° NW 01:26:14 78° NE 01:30:12 33° SE
Meteor 1-12 Rocket 4.1 01:30:53 66° S 01:31:43 82° E 01:37:24 10° NNE
GP-B 3.1 01:28:40 10° N 01:32:58 76° ENE 01:32:58 76° ENE
Helios 1A Rocket 3.2 01:30:50 10° NNE 01:34:31 66° NE 01:34:31 66° NE
USA 234 4.0 01:31:11 10° NE 01:37:28 51° NNW 01:43:43 10° W
Cosmos 1992 Rocket 3.9 01:36:50 66° SW 01:37:29 77° WNW 01:42:43 10° NNE
Landsat 5 4.2 01:40:31 44° W 01:40:31 44° W 01:44:11 10° NNW
Cosmos 1346 Rocket 3.7 01:38:29 10° NNW 01:41:27 41° NW 01:41:27 41° NW
Cosmos 2263 4.3 01:43:25 52° WSW 01:44:42 69° WNW 01:50:22 10° NNE
BREEZE-M DEB (TANK) 3.6 01:37:33 10° WNW 01:49:39 69° N 01:52:42 15° E
H-2A R/B 3.5 01:47:03 10° N 01:51:19 40° WNW 01:51:49 39° W
Cosmos 1953 Rocket 4.3 01:47:53 10° N 01:52:02 43° ENE 01:52:13 43° E
ISS -1.3 01:51:16 10° WNW 01:54:12 29° N 01:57:06 10° ENE
Cosmos 2100 Rocket 4.0 01:55:57 53° SSW 01:57:33 76° W 02:03:57 10° N
BREEZE-M DEB (TANK) 3.4 01:55:09 10° WNW 01:58:51 75° SSW 02:12:37 10° ESE
Cosmos 1825 Rocket 3.5 01:58:39 10° N 02:03:06 78° ENE 02:03:06 78° ENE
Cosmos 1726 Rocket 4.3 02:03:33 42° E 02:03:33 42° E 02:07:32 10° NNE
Cosmos 1833 4.3 01:58:42 10° NW 02:04:11 54° WSW 02:04:29 54° WSW
Cosmos 1975 3.8 02:08:41 40° WNW 02:08:41 40° WNW 02:12:15 10° N
Meteor 1-21 4.3 02:03:33 10° N 02:09:10 70° ENE 02:10:30 51° SE
Cosmos 2061 Rocket 4.2 02:08:43 49° SW 02:10:25 67° W 02:16:51 10° N
Cosmos 1743 3.1 02:16:27 63° NNE 02:16:27 63° NNE 02:19:47 10° N
Cosmos 1758 Rocket 3.7 02:11:38 10° N 02:16:08 67° E 02:16:23 65° E
Cosmos 1459 Rocket 4.2 02:15:00 46° SW 02:16:31 58° WNW 02:22:32 10° N
Cosmos 2016 Rocket 3.9 02:15:58 54° SSW 02:17:25 79° W 02:23:33 10° N
Cosmos 1340 3.3 02:19:10 10° N 02:22:42 50° ENE 02:22:42 50° ENE
Cosmos 1802 Rocket 4.2 02:21:21 46° SW 02:22:59 61° WNW 02:29:14 10° N
Cosmos 2369 Rocket 3.7 02:21:04 18° W 02:24:07 28° NW 02:28:58 10° N
UNK 3.7 02:12:17 10° WSW 02:24:13 86° NNW 02:27:40 10° ENE
SeaSat 1 2.4 02:23:59 54° SE 02:25:07 78° ENE 02:30:04 10° NNW
CZ-2C R/B 3.3 02:27:02 48° WSW 02:27:10 48° W 02:31:55 10° NNW
Cosmos 1842 3.5 02:25:45 10° N 02:29:35 65° ENE 02:29:35 65° ENE
Cosmos 2219 3.1 02:26:02 10° NNW 02:31:37 63° WSW 02:32:20 58° SSW
Lacrosse 5 3.2 02:28:05 14° W 02:32:05 36° NNW 02:36:48 10° NE
CZ-2C R/B 3.3 02:27:30 10° N 02:32:24 42° WNW 02:33:40 36° WSW
Cosmos 2227 Rocket 3.2 02:30:16 10° NNW 02:35:43 44° NE 02:40:20 14° SE
Cosmos 1864 Rocket 4.4 02:35:54 50° SSW 02:37:41 83° W 02:43:56 10° N
Cosmos 1570 Rocket 4.1 02:39:21 55° SSE 02:40:21 67° ESE 02:45:40 10° NNE
Uosat 12 SS-18 rocket 4.4 02:36:37 10° NW 02:41:11 76° NE 02:43:18 36° SE
Cosmos 968 Rocket 4.4 02:38:37 10° NW 02:43:07 33° W 02:43:07 33° W
Cosmos 1666 2.8 02:45:35 73° NE 02:45:35 73° NE 02:49:07 10° N
Cosmos 44 Rocket 4.2 02:43:07 10° NW 02:47:04 35° W 02:47:04 35° W
BREEZE-M R/B 4.2 02:39:32 10° WNW 02:47:50 88° SSW 02:53:42 10° ESE
Cosmos 2228 2.9 02:52:39 69° SE 02:53:01 75° E 02:57:19 10° NNE
Cosmos 1725 Rocket 4.1 02:51:17 44° SW 02:53:07 63° W 02:59:16 10° N
Cosmos 1816 Rocket 4.5 02:48:32 10° NNW 02:54:47 70° W 02:56:47 45° SSW
Cosmos 1656 Rocket 3.8 02:53:58 44° WSW 02:55:38 65° WNW 03:01:15 10° NNE
Cosmos 2297 Rocket 3.1 02:51:46 10° NNW 02:57:14 47° ENE 03:02:40 10° SE
NOSS 3-3 (A) 4.0 02:55:44 43° SW 02:58:02 89° NW 03:04:53 10° NE
NOSS 3-3 (C) 4.0 02:55:50 43° SW 02:58:08 90° WNW 03:04:59 10° NE
JB-3 4.3 02:54:48 10° NNE 02:58:54 81° ESE 02:59:12 75° SSE
Resurs 1-4 Rocket 4.5 02:56:49 10° NE 02:59:33 14° E 03:02:17 10° ESE
Cosmos 405 Rocket 4.2 02:56:25 10° N 03:00:10 34° ENE 03:01:51 24° ESE
Tsikada Rocket 4.4 02:55:27 10° NNW 03:01:30 50° W 03:03:14 40° SW
Cosmos 1943 Rocket 3.5 03:00:34 22° W 03:03:09 31° NW 03:08:09 10° N
Lacrosse 5 rocket 3.8 03:01:16 10° WNW 03:03:52 18° NNW 03:06:26 10° NNE
NPP 4.1 02:58:42 10° NNE 03:03:59 53° E 03:05:57 35° SSE
Cosmos 1606 Rocket 4.3 03:04:27 36° W 03:04:45 36° WNW 03:08:47 10° N
ARIANE 5 R/B 4.5 03:03:07 10° NE 03:06:56 21° E 03:10:13 12° SE
Landsat 4 3.6 03:07:17 73° SE 03:07:36 82° ENE 03:11:28 10° NNW
PSLV R/B 3.8 03:10:30 10° N 03:14:53 62° WNW 03:15:44 51° WSW
ATLAS 2AS CENTAUR R/B 3.8 03:09:58 10° NW 03:16:33 29° WSW 03:17:34 28° WSW
SL-16 R/B 3.8 03:12:23 10° SE 03:18:01 39° ENE 03:23:39 10° N
Cosmos 2058 Rocket 3.9 03:23:00 35° W 03:23:39 37° WNW 03:27:48 10° N
Cosmos 1812 Rocket 3.7 03:22:42 46° SSE 03:23:57 72° E 03:28:25 10° NNE
Cosmos 2208 Rocket 4.3 03:23:23 39° WSW 03:25:02 57° WNW 03:30:15 10° NNE
ERS-2 3.2 03:21:36 10° NNE 03:25:07 37° E 03:26:03 31° SE
Cosmos 44 3.9 03:22:32 10° NW 03:27:13 37° WSW 03:27:13 37° WSW
SL-08 R/B 3.2 03:27:23 43° S 03:28:52 76° WSW 03:33:32 10° NNW
ISS -2.8 03:27:49 10° WNW 03:31:02 59° NNE 03:34:16 10° ESE
CBERS-1 4.0 03:27:20 10° NNE 03:32:31 79° ESE 03:34:38 36° S
Cosmos 2298 Rocket 3.9 03:27:58 10° NNW 03:33:18 81° WSW 03:36:11 28° SSE
Cosmos 1707 2.8 03:37:07 10° N 03:41:05 79° E 03:42:30 38° SSE
Cosmos 972 Rocket 4.3 03:37:48 10° NNW 03:42:30 46° WSW 03:43:53 37° SW
Cosmos 1656 4.2 03:44:43 25° S 03:47:49 52° ESE 03:53:18 10° NE
UNK 4.5 03:47:49 10° SSE 03:52:22 53° ENE 03:56:56 10° N
Okean 3 Rocket 3.4 03:51:18 10° N 03:55:44 81° W 03:57:57 29° S
Cosmos 1464 Rocket 4.0 03:53:03 28° SSW 03:56:30 71° W 04:02:52 10° N
Cosmos 858 Rocket 4.5 03:52:02 10° NNW 03:57:13 63° WSW 04:00:31 22° S
CZ-2D R/B 3.1 03:52:15 10° NNE 03:57:30 44° E 04:01:54 14° SSE
SME Rocket 4.4 03:52:01 10° SSE 03:57:38 84° ENE 04:06:38 10° NNW
ATLAS CENTAUR R/B 2.1 03:55:47 30° S 03:58:08 61° ESE 04:03:04 10° NE
IRS-1C 4.1 03:53:13 10° NNE 03:58:35 78° WNW 04:01:27 28° SSW
Cosmos 990 Rocket 4.1 03:53:18 10° NNW 03:58:36 80° ENE 04:03:51 10° SSE
Cosmos 468 Rocket 3.9 03:59:23 30° SSW 04:02:00 86° WNW 04:07:11 10° NNE
SeaSat 1 4.2 04:03:46 16° W 04:03:46 16° W 04:06:08 10° WNW
Milstar 3 Cent rocket 4.1 04:05:20 13° S 04:05:47 13° SSE 04:08:44 10° SE
BREEZE-M DEB (TANK) 4.1 04:06:01 21° S 04:08:12 30° SE 04:11:48 10° ENE
Cosmos 2082 4.1 04:03:28 10° NW 04:08:42 40° WSW 04:11:29 24° SSW
Cosmos 1092 Rocket 4.3 04:03:11 10° N 04:09:28 69° E 04:15:45 10° SSE
Cosmos 1697 Rocket 3.1 04:05:53 20° S 04:09:39 57° ESE 04:15:13 10° NNE
Cosmos 2150 Rocket 4.4 04:06:32 10° NNW 04:11:29 43° WSW 04:14:07 24° SSW
NOSS 2-1 (D) 3.4 04:11:24 32° SW 04:13:14 80° NW 04:17:53 10° NE
NOSS 2-1 (C) 3.4 04:12:45 31° SW 04:14:37 80° NW 04:19:16 10° NE
Lacrosse 5 4.1 04:12:10 10° NW 04:16:15 23° N 04:20:21 10° NE
Cosmos 1980 Rocket 3.2 04:13:09 13° S 04:17:46 41° ESE 04:23:03 10° NE
Abrixas 2.4 04:15:55 14° WNW 04:18:27 87° NNE 04:21:31 10° ESE
Cosmos 2227 Rocket 3.0 04:14:39 10° NW 04:19:36 32° WSW 04:22:04 22° SW
Meteor 2-5 Rocket 4.3 04:14:43 10° NNW 04:20:10 41° W 04:23:37 21° SSW
Cosmos 1898 Rocket 4.2 04:17:12 10° NW 04:22:02 35° WSW 04:24:45 22° SSW
USA 161 2.1 04:23:54 35° WSW 04:24:12 36° W 04:26:51 10° NNW
GEOS 3 Rocket 3.5 04:20:17 10° SSE 04:25:29 68° SW 04:30:39 10° NW
Cosmos 1125 Rocket 4.0 04:23:09 10° NNW 04:28:21 63° ENE 04:33:30 10° SSE
Cosmos 1076 Rocket 3.4 04:24:31 10° NNW 04:28:52 75° W 04:32:41 13° S
Cosmos 2322 Rocket 4.3 04:25:14 10° SSE 04:29:18 21° E 04:33:21 10° NE
NOSS 2-1 (E) 3.7 04:27:23 24° SW 04:29:45 64° NW 04:34:32 10° NE
MTI 4.1 04:29:16 10° SSE 04:32:31 67° ENE 04:35:48 10° N
Cosmos 841 Rocket 3.6 04:30:03 17° SSW 04:34:08 80° ESE 04:39:26 10° NNE
Cosmos 1743 Rocket 4.2 04:30:21 10° N 04:34:38 56° ENE 04:38:55 10° SSE
BREEZE-M DEB (TANK) 3.4 04:31:18 12° W 04:34:42 60° N 04:38:49 10° ENE
Cosmos 1937 Rocket 4.0 04:30:07 10° NW 04:34:51 37° WSW 04:38:36 15° SSW
Cosmos 1437 3.8 04:32:44 10° N 04:36:00 48° ENE 04:39:14 10° SSE
Cosmos 405 Rocket 4.3 04:32:59 10° NW 04:36:01 20° W 04:37:04 19° WSW
Okean O Rocket 2.9 04:34:27 10° NNE 04:38:34 37° E 04:42:40 10° SSE
NOSS 3-4 (A) 4.0 04:33:23 10° NW 04:40:02 48° WSW 04:47:03 10° S
Resurs 1-4 Rocket 2.1 04:34:46 10° NNE 04:40:03 82° WNW 04:44:38 14° SSW
NOSS 3-4 (C) 4.0 04:33:29 10° NW 04:40:11 49° WSW 04:47:14 10° S
Cosmos 1763 Rocket 3.5 04:36:57 18° SSW 04:40:57 81° WNW 04:46:10 10° NNE
Cosmos 2297 Rocket 3.0 04:36:14 10° NW 04:41:03 30° WSW 04:44:55 14° SSW
Cosmos 1766 3.5 04:41:14 20° SSW 04:43:48 52° WNW 04:47:41 10° N
ADEOS 4.3 04:39:02 10° N 04:43:52 39° WNW 04:47:32 16° SW
Lacrosse 5 rocket 3.9 04:41:55 10° NNW 04:44:16 16° N 04:46:38 10° NE
CZ-3 R/B 4.5 04:27:43 16° SW 04:46:22 29° S 04:55:13 10° ESE
ARIANE 5 R/B 2.8 04:41:24 10° N 04:46:24 55° WNW 04:50:33 15° SW
Cosmos 1378 3.7 04:44:17 10° NNW 04:47:51 40° W 04:50:38 15° SSW
BREEZE-M DEB (TANK) 1.9 04:51:33 10° W 04:54:14 87° S 04:58:44 10° E
UNKNOWN OBJECT B 2.7 04:50:46 10° N 04:54:43 75° WNW 04:58:14 12° SSW
Cosmos 1408 Rocket 4.1 04:52:41 10° NNW 04:56:47 40° W 05:00:53 10° SSW
Cosmos-2242 3.0 04:53:18 11° SSW 04:57:29 77° W 05:01:48 10° N
ERS-2 4.0 04:56:01 10° NNW 04:58:39 18° WNW 05:00:53 12° WSW
Cosmos 1766 Rocket 4.1 04:55:22 10° NNW 04:59:30 41° W 05:03:39 10° SSW
SL-16 R/B 3.0 04:55:54 10° SSW 05:01:37 39° W 05:07:23 10° NNW
SL-16 R/B 3.6 04:56:39 10° S 05:01:44 35° ESE 05:06:50 10° NE
Cosmos 1758 3.3 05:00:44 10° SSW 05:04:40 66° W 05:08:41 10° N
ISS -2.3 05:04:32 10° W 05:07:17 25° SW 05:10:01 10° SSE
EO 1 Del DPAF 4.3 05:05:43 11° SSW 05:08:58 28° W 05:12:21 10° NW
Cosmos 1655 Rocket 4.1 05:02:36 10° N 05:09:03 83° W 05:15:26 10° S
GPS 2-04 Rocket1 4.3 05:07:08 13° SW 05:09:10 18° S 05:11:47 10° SE
Thor Agena Rocket 3.7 05:04:48 10° SSE 05:09:49 75° ENE 05:14:54 10° NNW
Cosmos 1953 2.5 05:05:58 10° SSW 05:09:55 55° W 05:13:57 10° N
Cosmos 540 Rocket 3.8 05:05:47 10° S 05:10:54 67° ESE 05:16:03 10° NNE
Cosmos 1441 Rocket 4.4 05:08:51 10° NW 05:12:12 26° W 05:15:33 10° SSW
IRS-1D 4.3 05:08:08 10° N 05:12:37 35° WNW 05:17:06 10° SW
Cosmos 2263 Rocket 3.5 05:10:24 10° NNW 05:15:46 44° NE 05:21:04 10° SE
Cosmos 1805 3.5 05:12:06 10° SSW 05:15:56 52° WNW 05:19:46 10° N
CZ-4B R/B 3.4 05:13:44 10° NNE 05:19:20 76° ESE 05:24:47 10° S
Cosmos 371 Rocket 4.1 05:17:18 10° S 05:21:57 52° ESE 05:26:38 10° NNE
Okean-O 4.1 05:17:53 10° NNE 05:22:01 37° E 05:26:07 10° SSE
Cosmos 1842 Rocket 3.6 05:19:02 10° S 05:23:31 82° W 05:28:02 10° N
Cosmos 1733 3.8 05:19:56 10° S 05:23:39 58° E 05:27:25 10° NNE
Cosmos 2058 4.4 05:21:23 10° N 05:25:26 41° ENE 05:29:26 10° SSE
CZ-2D R/B 4.2 05:30:30 10° N 05:34:33 40° WNW 05:38:39 10° SW
Cosmos 2026 Rocket 4.3 05:30:33 10° NNW 05:36:37 49° W 05:42:35 10° SSW
